Total_Precipitation_Accumulation
0.01 0.02 0.02 0.04 0.13 0.28 0.38 0.33 0.32 0.38 0.39 0.36 0.40 0.44 0.49 0.63 1.12 2.05 1.21 0.63 0.45 0.43 0.43 0.31 0.35 0.43 0.51 0.58 0.65 0.71 0.69 0.68 0.64 0.62 0.63 0.70 0.77 0.86 0.92 0.98 1.42 1.57 1.68 1.71 1.76 1.90 1.96 1.88 1.96
0.02 0.02 0.04 0.07 0.20 0.45 0.47 0.36 0.40 0.41 0.45 0.42 0.48 0.51 0.54 0.59 0.53 0.58 0.61 0.57 0.43 0.39 0.40 0.29 0.36 0.48 0.52 0.57 0.62 0.75 0.72 0.70 0.67 0.64 0.65 0.73 0.81 0.90 1.03 1.16 1.39 1.64 1.82 1.96 2.13 2.26 2.17 1.97 1.95
0.03 0.03 0.06 0.11 0.18 0.35 0.47 0.43 0.45 0.43 0.42 0.49 0.64 0.77 0.80 0.74 0.66 0.62 0.56 0.45 0.37 0.31 0.33 0.39 0.47 0.54 0.59 0.60 0.61 0.70 0.76 0.79 0.78 0.80 0.75 0.79 0.85 0.88 0.97 1.14 1.29 1.43 1.57 1.75 1.91 1.99 2.09 1.94 1.89
0.04 0.04 0.08 0.13 0.17 0.24 0.40 0.49 0.49 0.52 0.48 0.45 0.59 0.98 0.92 0.70 0.70 0.71 0.53 0.44 0.42 0.36 0.31 0.40 0.54 0.57 0.63 0.68 0.67 0.66 0.72 0.83 0.94 1.01 0.97 0.94 0.95 0.99 1.06 1.21 1.27 1.35 1.40 1.48 1.61 1.83 2.01 2.03 1.89
0.04 0.07 0.13 0.15 0.18 0.22 0.33 0.45 0.48 0.51 0.59 0.57 0.66 1.06 1.04 0.85 0.82 0.93 0.82 0.62 0.59 0.57 0.53 0.49 0.57 0.61 0.66 0.73 0.74 0.78 0.79 0.88 1.02 1.11 1.15 1.14 1.10 1.06 1.16 1.32 1.31 1.32 1.36 1.44 1.46 1.54 1.66 1.96 2.04
0.05 0.08 0.19 0.16 0.16 0.26 0.34 0.45 0.47 0.51 0.60 0.72 0.87 1.27 1.53 1.38 1.24 1.33 1.31 0.94 0.81 0.73 0.69 0.70 0.67 0.62 0.71 0.81 0.81 0.86 0.93 0.98 1.10 1.21 1.32 1.28 1.18 1.15 1.26 1.41 1.46 1.50 1.55 1.59 1.46 1.42 1.51 1.76 1.97
0.05 0.11 0.19 0.15 0.18 0.31 0.39 0.51 0.53 0.61 0.81 0.92 1.08 1.59 1.79 1.70 1.63 1.48 1.57 1.34 1.00 0.95 0.94 0.94 0.80 0.76 0.84 0.97 0.96 0.96 1.00 1.07 1.18 1.38 1.51 1.45 1.35 1.35 1.42 1.48 1.55 1.64 1.70 1.76 1.72 1.65 1.63 1.72 1.91
0.06 0.13 0.15 0.15 0.20 0.35 0.47 0.55 0.59 0.69 0.95 1.09 1.17 1.67 1.91 1.83 1.59 1.51 1.59 1.64 1.39 1.32 1.30 1.22 1.22 1.20 1.10 1.15 1.29 1.24 1.21 1.21 1.20 1.33 1.57 1.61 1.52 1.48 1.54 1.50 1.62 1.75 1.88 1.96 2.07 2.21 2.15 2.01 1.92
0.05 0.14 0.14 0.12 0.17 0.34 0.49 0.60 0.69 0.72 0.93 1.13 1.06 1.23 1.66 1.48 1.62 1.90 1.82 1.89 1.82 1.74 1.68 1.47 1.53 1.55 1.42 1.38 1.34 1.50 1.49 1.42 1.36 1.41 1.61 1.69 1.79 1.79 1.77 1.71 1.97 2.06 2.24 2.42 2.55 2.61 2.41 2.26 2.09
0.04 0.12 0.12 0.09 0.13 0.28 0.45 0.61 0.77 0.85 0.90 1.10 1.15 1.15 1.41 1.55 1.62 1.91 2.26 2.11 2.10 1.93 1.85 1.78 1.63 1.56 1.54 1.45 1.56 1.74 1.69 1.70 1.58 1.79 1.80 1.96 2.40 2.57 2.23 2.45 2.60 2.68 2.79 2.83 2.72 2.66 2.54 2.25 1.89
0.04 0.09 0.10 0.12 0.17 0.28 0.44 0.56 0.62 0.78 0.95 1.07 1.25 1.30 1.40 1.71 1.98 2.02 2.44 2.42 2.37 2.27 2.09 2.13 1.99 1.83 2.01 2.11 2.00 2.01 2.08 2.21 2.09 2.25 2.33 2.51 2.75 2.80 2.80 2.95 2.92 3.03 3.10 3.00 2.94 2.74 2.42 2.14 1.95
0.04 0.07 0.09 0.15 0.19 0.28 0.39 0.47 0.65 0.85 1.23 1.29 1.58 1.86 1.90 1.89 2.20 2.25 2.56 2.60 2.73 2.89 2.71 2.59 2.58 2.45 2.56 2.81 2.61 2.32 2.23 2.33 2.40 2.66 2.60 2.93 3.10 3.13 3.14 3.23 3.20 3.19 3.23 3.27 3.02 2.88 2.67 2.49 2.24
0.06 0.08 0.09 0.13 0.22 0.32 0.41 0.54 0.73 0.98 1.16 1.27 1.69 2.12 2.23 2.09 2.01 2.24 2.91 2.77 2.82 3.09 3.23 3.00 2.97 2.90 3.07 3.26 3.12 2.86 2.82 2.60 2.57 2.91 3.00 3.16 3.31 3.33 3.45 3.45 3.46 3.20 3.16 3.14 3.02 2.83 2.89 2.83 2.56
0.08 0.09 0.12 0.13 0.19 0.30 0.42 0.54 0.72 0.94 0.88 1.03 1.37 1.71 1.90 2.06 2.09 2.27 2.66 2.79 2.76 3.00 3.29 3.41 3.41 3.33 3.15 3.24 3.30 3.08 2.83 2.94 2.82 2.86 3.03 3.09 3.30 3.61 3.71 3.68 3.66 3.56 3.43 3.46 3.28 3.07 3.24 3.14 3.02
0.06 0.10 0.14 0.15 0.20 0.31 0.40 0.61 0.84 1.07 1.02 1.12 1.31 1.46 1.77 2.01 2.34 2.58 2.71 2.74 2.76 2.89 3.10 3.28 3.40 3.57 3.39 3.39 3.42 3.23 3.04 3.06 3.14 3.19 3.36 3.27 3.25 3.60 3.80 3.96 3.88 3.88 3.77 3.73 3.65 3.60 3.68 3.38 3.21
0.08 0.13 0.23 0.25 0.22 0.25 0.41 0.80 1.06 1.11 1.17 1.23 1.29 1.41 1.59 1.94 2.26 2.41 2.38 2.43 2.39 2.47 2.79 3.10 3.26 3.47 3.68 3.73 3.86 3.60 3.62 3.68 3.65 3.47 3.43 3.34 3.36 3.58 3.95 4.09 4.11 4.21 4.11 4.17 4.23 4.13 3.99 3.88 3.60
0.14 0.18 0.25 0.34 0.27 0.25 0.43 0.87 1.10 1.05 1.19 1.28 1.29 1.31 1.41 1.67 1.95 2.10 2.16 2.18 2.16 2.19 2.70 3.07 3.42 3.81 4.04 4.24 4.47 4.42 4.50 4.37 4.17 4.07 3.92 3.96 4.10 4.12 4.29 4.40 4.50 4.58 4.65 4.68 4.45 4.63 4.41 4.31 4.09
0.21 0.22 0.26 0.28 0.27 0.28 0.44 0.73 0.92 1.04 1.16 1.27 1.29 1.29 1.28 1.52 1.76 1.96 2.14 2.30 2.24 2.35 2.77 3.18 3.48 4.09 4.63 4.73 4.91 5.02 5.26 5.18 5.02 5.04 4.88 4.62 4.75 4.85 5.00 4.89 4.99 5.08 5.18 5.04 5.02 5.13 4.92 4.56 4.47
0.19 0.25 0.31 0.27 0.25 0.33 0.44 0.64 0.88 1.01 1.21 1.37 1.35 1.37 1.49 1.60 1.85 2.08 2.26 2.46 2.76 3.01 3.19 3.44 3.68 4.06 4.36 4.81 5.17 5.37 5.56 5.74 5.82 5.78 5.74 5.71 5.68 5.84 5.92 5.63 5.68 5.62 5.52 5.29 5.27 5.19 4.96 4.65 4.61
0.14 0.20 0.28 0.31 0.29 0.32 0.47 0.67 0.91 1.02 1.15 1.35 1.42 1.51 1.55 1.67 1.86 2.22 2.59 3.01 3.26 3.43 3.50 3.75 4.11 4.42 4.61 5.02 5.56 6.07 6.28 6.35 6.36 6.39 6.54 6.56 6.53 6.71 6.78 6.77 6.51 6.33 6.10 5.62 5.26 5.12 4.86 4.47 4.60
0.12 0.17 0.19 0.28 0.35 0.41 0.60 1.01 1.22 1.22 1.33 1.47 1.49 1.64 1.68 1.77 2.06 2.36 2.84 3.21 3.30 3.42 3.53 3.71 4.29 4.79 5.25 5.70 6.27 6.78 7.12 7.12 6.95 6.62 6.73 6.87 6.66 6.71 6.97 7.06 6.83 6.48 5.92 5.35 5.24 5.22 5.04 4.73 4.63
0.13 0.14 0.17 0.23 0.38 0.53 0.59 1.25 1.61 1.66 1.68 1.60 1.61 1.74 1.74 1.78 2.03 2.38 2.68 2.98 3.15 3.29 3.58 3.86 4.30 5.00 5.55 5.85 6.48 7.15 7.39 7.61 7.63 7.41 7.12 6.93 6.66 6.50 6.46 6.38 6.03 5.68 5.30 5.00 4.86 4.96 4.85 4.80 4.55
0.12 0.12 0.18 0.22 0.30 0.49 0.54 1.02 1.78 1.91 2.02 1.84 1.77 1.80 1.69 1.66 1.82 2.20 2.44 2.75 3.16 3.29 3.42 3.63 4.17 4.83 5.59 6.24 6.74 7.33 7.79 8.01 7.94 7.53 7.05 6.52 6.17 5.72 5.28 4.99 4.83 4.78 4.64 4.45 4.32 4.37 4.27 4.04 3.94
0.11 0.16 0.26 0.32 0.43 0.70 0.65 1.00 1.90 2.20 2.34 2.39 2.05 1.83 1.69 1.62 1.70 1.90 2.20 2.50 2.82 2.90 3.15 3.42 3.87 4.60 5.33 5.95 6.55 7.06 7.45 7.55 7.25 6.72 6.18 5.80 5.40 4.87 4.33 4.08 3.98 3.90 3.75 3.56 3.47 3.48 3.48 3.54 3.59
0.14 0.30 0.64 0.85 0.95 0.92 0.70 1.05 1.88 2.08 1.92 1.99 2.04 2.09 1.87 1.65 1.71 1.92 2.15 2.47 2.64 2.70 2.94 3.29 3.82 4.49 4.91 5.38 5.89 6.23 6.45 6.57 6.54 6.23 5.77 5.37 4.85 4.38 3.90 3.50 3.34 3.07 2.91 2.84 2.91 2.92 2.89 3.01 3.11
0.15 0.30 0.79 1.10 1.09 1.08 1.07 1.55 2.21 2.04 1.69 1.69 1.82 1.97 1.79 1.70 1.86 2.17 2.30 2.49 2.66 2.67 2.84 3.19 3.65 4.10 4.32 4.51 4.92 5.27 5.43 5.47 5.34 5.17 4.78 4.47 4.10 3.77 3.49 3.10 2.76 2.52 2.38 2.30 2.49 2.53 2.52 2.61 2.71
0.20 0.27 0.42 0.62 0.71 1.08 1.57 2.10 2.70 2.52 1.93 1.67 1.73 1.80 1.86 1.83 1.92 2.20 2.36 2.47 2.58 2.61 2.80 2.97 3.22 3.43 3.63 3.80 4.03 4.26 4.32 4.22 4.07 3.89 3.65 3.46 3.26 2.91 2.78 2.59 2.42 2.27 2.21 2.21 2.29 2.29 2.34 2.49 2.54
0.20 0.31 0.44 0.71 1.06 1.46 1.79 2.52 3.35 3.21 2.49 1.99 1.87 1.84 1.86 1.84 1.89 2.09 2.19 2.31 2.37 2.37 2.48 2.56 2.77 2.92 3.11 3.22 3.27 3.21 3.26 3.18 3.00 2.80 2.70 2.53 2.35 2.25 2.26 2.20 2.21 2.15 2.09 2.13 2.20 2.08 2.11 2.23 2.25
0.27 0.36 0.54 0.71 0.81 1.41 2.10 3.01 3.20 3.24 2.91 2.48 2.02 1.78 1.77 1.78 1.79 1.84 1.91 1.97 2.00 2.02 2.10 2.24 2.40 2.59 2.70 2.73 2.82 2.76 2.64 2.44 2.32 2.15 2.05 1.99 1.92 1.92 1.93 1.95 1.97 1.99 1.98 2.01 2.00 1.84 1.88 1.94 2.09
0.27 0.39 0.59 0.93 0.98 1.16 1.83 3.03 3.05 3.27 3.16 2.80 2.37 2.06 1.95 1.87 1.75 1.68 1.65 1.68 1.73 1.79 1.92 2.06 2.09 2.20 2.27 2.35 2.38 2.38 2.33 2.18 2.01 1.88 1.79 1.79 1.80 1.78 1.80 1.81 1.79 1.84 1.94 2.01 1.92 1.76 1.73 1.86 1.99